Wind_Speed
19 19 19 19 18 18 18 18 17 17 17 17 17 17 17 17 17 17 18 18 18 18 18 18 19 20 22 24 25 26 27 28 29 31 33 35 36 37 38 39 40 41
19 19 19 19 19 19 18 18 18 17 17 17 18 18 18 18 18 18 18 18 18 18 18 18 19 21 23 25 26 27 28 29 31 32 35 36 37 38 39 40 41 42
20 19 19 19 19 19 19 19 18 17 17 17 18 18 19 19 18 18 18 18 18 18 18 19 21 23 25 26 27 28 29 30 32 34 36 37 38 39 40 41 42 43
20 19 19 19 19 19 19 19 18 17 17 17 18 18 18 18 18 18 19 19 19 19 20 21 23 24 26 27 28 29 30 32 33 35 37 38 39 40 41 42 43 43
20 19 19 19 19 19 18 18 18 17 17 17 17 17 18 18 19 20 20 20 19 20 21 23 24 26 27 29 30 31 32 33 34 36 38 39 40 41 41 42 43 43
20 19 19 19 19 19 19 18 18 18 17 17 17 17 18 19 20 20 20 20 20 22 23 25 26 27 29 30 32 33 33 34 36 37 39 40 41 41 41 42 42 42
20 20 20 19 19 19 19 19 19 19 18 18 17 17 18 19 19 20 21 21 23 24 25 26 28 29 31 32 33 34 35 35 37 38 40 41 41 41 41 41 41 41
21 21 20 20 19 20 20 21 20 20 19 19 18 18 19 20 20 22 23 24 25 25 27 28 30 31 33 34 34 35 35 36 37 39 41 41 41 41 41 41 41 41
22 21 21 21 21 21 22 21 21 21 20 20 19 19 20 21 23 24 25 26 26 27 29 30 32 33 34 35 35 35 35 36 38 40 41 40 40 41 41 41 41 41
22 22 22 23 23 23 23 22 22 22 22 21 21 22 23 23 24 26 27 28 28 30 31 33 34 35 35 35 35 35 36 37 38 40 40 39 40 41 41 42 42 43
23 23 24 25 25 25 24 23 23 23 23 23 23 24 24 25 27 28 29 30 31 32 34 34 35 35 35 35 35 35 36 37 39 40 39 39 40 41 42 42 43 44
25 25 25 26 26 26 25 25 25 25 25 25 25 25 26 28 30 30 31 32 33 34 35 35 36 36 35 35 35 36 36 38 39 39 39 39 40 41 42 43 44 45
24 25 25 26 27 27 27 27 27 27 27 27 27 28 29 31 31 32 32 33 34 35 36 36 36 35 35 35 35 36 37 38 39 39 39 39 40 41 42 43 45 46
23 24 25 26 27 28 29 29 29 29 29 30 30 31 31 32 33 34 35 35 35 36 36 35 34 34 35 36 36 37 37 38 38 39 39 39 40 41 42 43 45 46
23 24 25 26 27 28 29 30 30 31 31 32 32 32 32 33 35 36 36 36 36 35 34 33 33 34 35 37 37 38 38 38 38 38 38 39 40 41 42 44 45 46
24 25 26 27 27 28 29 30 31 32 33 33 32 32 33 33 34 35 35 35 34 33 32 33 34 36 37 38 38 38 37 38 38 38 38 39 40 41 42 44 45 45
25 26 27 28 28 29 30 31 32 33 33 33 33 33 33 33 33 34 33 33 32 32 33 35 36 38 38 38 38 37 37 37 37 38 38 39 40 41 42 44 44 44
25 26 27 28 29 30 31 32 33 33 35 36 36 33 31 31 32 33 32 32 32 33 35 37 38 38 38 38 37 37 37 37 37 37 38 39 40 41 43 43 44 43
25 26 28 29 30 30 31 32 32 34 36 36 33 30 30 32 33 33 33 33 34 36 37 38 38 38 37 37 37 37 36 36 37 37 38 39 40 42 43 43 43 41
26 27 28 29 30 31 33 32 32 35 35 33 31 31 32 34 33 33 34 34 36 38 38 37 37 37 37 37 37 37 36 36 36 37 37 39 41 42 43 42 41 38
28 29 29 30 31 32 32 32 32 35 34 32 32 33 34 34 35 35 36 37 38 38 37 37 37 37 38 39 38 37 37 36 36 36 37 39 41 42 42 41 38 35
31 31 31 31 32 32 32 32 33 34 33 32 34 34 35 36 37 37 38 38 38 37 37 37 37 38 39 39 38 39 37 35 34 35 37 40 41 41 40 39 36 33
32 32 32 33 32 32 32 33 34 35 34 35 35 35 36 37 38 39 39 38 37 37 37 36 37 39 39 39 40 39 35 33 34 36 38 40 40 40 39 36 33 31
32 32 32 33 33 33 34 35 35 35 35 35 36 36 37 38 39 39 38 38 37 37 36 36 37 37 37 38 38 35 33 34 36 37 38 39 40 39 37 34 31 30
33 33 33 34 33 34 35 36 36 36 36 36 37 38 39 39 39 38 38 37 37 36 36 36 36 36 35 35 34 34 36 38 38 37 39 39 39 37 35 31 29 29
36 35 35 35 35 35 36 37 37 37 37 38 38 38 39 39 38 37 37 36 36 36 35 35 35 34 33 34 35 36 38 38 37 38 39 38 37 36 32 29 28 27
Wind_Direction
240 243 245 246 246 244 245 246 247 248 247 247 250 254 258 261 264 266 267 267 267 267 271 278 287 294 297 298 299 302 306 311 316 321 324 325 325 324 324 324 324 323
240 244 245 245 244 244 246 247 248 248 249 251 254 257 261 263 264 264 264 264 265 270 276 285 291 294 296 299 302 306 311 316 320 323 324 324 323 322 323 323 323 322
242 245 243 242 243 244 246 247 248 250 251 254 257 259 262 263 262 262 263 265 269 275 282 288 292 295 298 303 307 311 315 318 321 322 322 321 321 321 322 323 322 321
243 243 241 240 242 244 245 246 248 250 253 256 260 262 262 262 261 262 264 268 273 279 285 289 294 298 303 307 311 314 316 318 319 320 320 320 320 321 322 322 321 320
241 240 239 241 243 244 246 247 250 252 255 259 261 262 261 261 262 264 266 270 276 283 288 292 297 302 306 310 312 314 316 317 318 319 319 319 319 320 321 321 320 320
239 239 240 243 245 247 249 251 252 254 257 260 261 261 262 264 266 267 270 275 281 285 290 296 301 305 308 310 312 313 314 316 317 318 318 318 319 320 321 320 320 320
239 239 242 246 248 250 252 253 255 257 260 262 263 264 267 269 270 272 275 280 283 288 293 298 302 304 307 309 311 312 313 315 316 317 317 317 317 319 320 321 321 320
240 241 245 249 250 251 253 255 257 260 262 264 266 269 273 274 274 276 278 281 285 290 294 298 300 303 306 308 309 311 312 313 314 315 316 315 316 318 320 321 321 320
242 243 247 250 251 252 253 255 258 261 263 266 269 273 275 276 276 277 280 283 287 290 292 295 299 302 305 306 308 309 310 311 313 314 314 314 315 317 319 320 320 319
243 245 248 250 251 252 254 256 258 260 263 267 270 273 275 277 279 281 283 284 285 287 290 294 298 301 303 305 307 308 309 310 312 312 312 312 314 316 318 319 319 319
245 247 249 251 252 254 256 257 258 260 263 266 269 272 275 279 282 284 284 283 284 287 291 294 298 301 303 305 306 307 307 309 310 310 310 311 312 315 316 317 318 318
247 249 250 252 254 256 258 259 260 263 265 267 270 273 277 280 282 283 283 283 285 288 291 294 297 300 303 304 305 306 307 308 309 308 308 309 311 313 315 316 317 318
250 251 253 254 256 260 262 263 264 265 267 269 272 274 277 280 283 284 284 286 287 289 292 294 297 300 303 304 305 306 307 307 306 306 306 307 309 312 314 315 316 317
257 257 257 258 260 263 265 265 267 268 269 271 273 275 277 281 285 286 287 288 288 289 291 294 298 301 303 304 305 306 306 305 304 304 305 306 308 311 312 314 316 316
263 263 262 262 264 265 266 267 268 269 270 272 274 276 279 282 285 287 288 287 287 289 292 297 300 303 304 305 305 305 304 302 301 302 303 305 307 309 311 313 315 314
265 265 264 265 265 266 267 268 269 270 271 271 273 275 277 280 283 286 287 287 289 293 298 301 303 304 305 305 304 303 301 300 299 300 302 304 306 308 310 312 313 312
267 266 266 266 266 267 268 269 271 272 272 272 272 273 274 278 283 286 288 291 296 300 303 305 305 305 304 303 302 300 299 298 298 300 302 303 305 307 310 311 312 312
268 268 268 267 267 268 270 271 272 274 275 275 274 273 275 282 287 290 293 297 301 304 305 305 304 304 302 301 300 298 297 296 297 299 301 302 304 307 309 311 311 311
268 268 268 268 269 269 270 271 274 277 280 279 277 277 283 289 292 295 298 301 303 304 305 304 303 302 300 299 298 296 295 295 297 298 300 301 304 307 309 310 310 310
268 267 267 268 269 270 271 273 277 280 281 280 281 284 290 294 296 298 300 302 303 303 303 302 302 301 299 298 297 295 295 295 295 297 299 302 305 307 308 309 309 309
269 269 268 269 269 271 273 276 277 278 279 281 285 288 292 296 298 299 300 301 301 301 302 302 301 301 300 298 296 295 294 293 294 296 300 303 305 305 306 308 308 309
270 270 270 270 270 272 274 276 276 276 279 283 286 290 293 295 297 298 299 300 301 301 301 302 301 301 300 297 295 295 294 293 296 299 302 303 303 304 306 307 307 308
269 270 270 270 271 272 273 274 275 279 283 286 289 292 293 294 296 298 299 300 300 301 301 301 301 301 299 296 294 294 293 296 301 303 304 303 303 304 306 306 306 308
268 268 269 270 272 273 275 276 278 281 285 288 291 293 293 295 296 297 298 298 299 300 300 300 301 300 298 296 295 294 296 301 306 306 304 303 303 304 305 304 305 307
267 268 270 272 274 275 277 278 280 283 286 289 291 292 293 294 295 295 297 298 299 299 299 300 300 298 295 295 297 298 301 305 307 305 303 303 303 304 303 302 304 307
268 270 272 273 275 276 277 279 282 285 287 289 290 291 291 292 293 295 297 297 298 298 298 299 298 295 292 294 296 298 301 303 303 302 302 302 302 302 300 301 303 307
Height
5808 5809 5810 5810 5811 5812 5812 5812 5813 5813 5813 5814 5814 5814 5814 5814 5814 5813 5813 5813 5812 5812 5812 5811 5811 5810 5809 5808 5807 5805 5804 5802 5800 5797 5795 5793 5790 5788 5786 5784 5781 5778
5806 5807 5808 5809 5810 5810 5810 5811 5811 5811 5812 5812 5812 5812 5812 5812 5812 5811 5811 5811 5810 5810 5810 5809 5809 5808 5807 5805 5804 5802 5800 5798 5796 5794 5792 5790 5788 5785 5783 5781 5778 5775
5804 5805 5806 5807 5808 5808 5809 5809 5809 5809 5810 5810 5810 5810 5810 5810 5810 5809 5809 5809 5808 5808 5808 5807 5806 5805 5804 5802 5801 5799 5797 5795 5793 5791 5789 5787 5785 5782 5780 5777 5774 5772
5802 5803 5804 5805 5806 5806 5807 5807 5807 5807 5808 5808 5808 5808 5808 5808 5808 5807 5807 5807 5806 5806 5805 5805 5804 5802 5801 5799 5797 5796 5794 5792 5790 5788 5786 5784 5781 5779 5776 5773 5771 5768
5800 5802 5802 5803 5804 5804 5805 5805 5805 5806 5806 5806 5806 5806 5806 5806 5806 5805 5805 5804 5804 5804 5803 5802 5801 5799 5797 5796 5794 5792 5790 5788 5787 5784 5782 5780 5778 5775 5772 5770 5767 5765
5798 5800 5800 5801 5802 5802 5802 5803 5803 5804 5804 5804 5804 5804 5804 5804 5803 5803 5802 5802 5801 5801 5800 5799 5797 5796 5794 5793 5791 5789 5787 5785 5783 5781 5779 5777 5774 5772 5769 5766 5764 5761
5796 5797 5798 5799 5799 5800 5800 5800 5801 5801 5802 5802 5802 5802 5801 5801 5801 5800 5799 5799 5798 5798 5797 5796 5794 5793 5791 5789 5787 5785 5784 5782 5780 5777 5775 5773 5770 5768 5765 5762 5760 5757
5794 5795 5796 5797 5797 5798 5798 5798 5799 5799 5799 5799 5799 5799 5798 5798 5798 5797 5796 5796 5795 5794 5793 5792 5791 5789 5788 5786 5784 5782 5780 5778 5776 5774 5772 5769 5767 5764 5762 5759 5756 5753
5792 5793 5794 5794 5795 5795 5795 5796 5796 5796 5796 5796 5796 5796 5795 5795 5795 5794 5793 5793 5792 5791 5790 5789 5788 5786 5785 5783 5781 5778 5776 5775 5773 5770 5768 5766 5763 5760 5758 5755 5752 5750
5790 5791 5791 5792 5792 5792 5792 5793 5793 5793 5793 5793 5793 5793 5793 5792 5792 5791 5790 5789 5788 5788 5787 5786 5784 5783 5781 5779 5777 5775 5773 5771 5769 5767 5764 5762 5759 5757 5754 5751 5749 5746
5787 5788 5789 5789 5789 5789 5790 5790 5790 5790 5790 5790 5790 5790 5789 5789 5788 5787 5787 5786 5785 5784 5783 5782 5781 5779 5777 5775 5773 5771 5769 5767 5765 5763 5760 5758 5756 5753 5750 5748 5745 5742
5785 5785 5786 5786 5786 5786 5786 5786 5787 5787 5787 5787 5787 5786 5786 5785 5785 5784 5783 5783 5782 5781 5780 5778 5777 5775 5773 5771 5769 5767 5765 5763 5761 5759 5757 5754 5752 5750 5747 5744 5741 5738
5781 5782 5783 5783 5783 5783 5783 5783 5783 5783 5783 5784 5783 5783 5783 5782 5782 5781 5780 5779 5778 5777 5776 5774 5773 5771 5769 5767 5765 5763 5762 5760 5757 5755 5753 5751 5748 5746 5743 5740 5737 5733
5778 5779 5780 5780 5780 5780 5780 5780 5780 5780 5780 5780 5780 5780 5779 5779 5778 5777 5776 5775 5774 5773 5772 5770 5769 5767 5765 5763 5761 5759 5758 5756 5754 5751 5749 5747 5744 5742 5739 5736 5732 5729
5775 5775 5776 5777 5777 5777 5776 5776 5776 5776 5777 5777 5776 5776 5776 5775 5775 5774 5773 5772 5770 5769 5768 5766 5764 5763 5761 5759 5757 5755 5754 5752 5750 5748 5745 5743 5741 5738 5735 5732 5728 5725
5772 5772 5773 5773 5773 5773 5773 5772 5772 5772 5773 5773 5773 5772 5772 5772 5771 5770 5769 5768 5767 5765 5763 5762 5760 5758 5757 5755 5753 5751 5749 5748 5746 5744 5742 5739 5737 5734 5731 5727 5724 5721
5769 5769 5769 5769 5769 5769 5769 5769 5769 5769 5769 5769 5769 5768 5768 5768 5767 5766 5765 5764 5762 5761 5759 5757 5756 5754 5753 5751 5749 5747 5745 5743 5742 5740 5738 5735 5733 5730 5727 5723 5720 5717
5765 5765 5765 5766 5766 5766 5765 5765 5765 5765 5765 5764 5764 5764 5764 5764 5763 5762 5761 5759 5758 5756 5754 5753 5751 5750 5748 5747 5745 5743 5741 5739 5737 5736 5734 5731 5729 5726 5722 5719 5716 5712
5762 5762 5762 5762 5762 5762 5761 5761 5761 5761 5760 5759 5759 5759 5760 5759 5759 5758 5756 5755 5753 5752 5750 5749 5747 5745 5744 5742 5740 5739 5737 5735 5733 5732 5729 5727 5724 5722 5718 5715 5712 5709
5757 5758 5758 5758 5758 5757 5757 5757 5757 5756 5756 5756 5756 5756 5756 5755 5754 5753 5751 5750 5749 5747 5746 5744 5743 5741 5739 5738 5736 5734 5733 5731 5729 5727 5725 5723 5720 5718 5715 5711 5708 5705
5753 5753 5754 5754 5753 5753 5753 5753 5753 5752 5752 5752 5752 5752 5751 5750 5749 5748 5746 5745 5744 5743 5742 5740 5738 5737 5735 5733 5731 5730 5728 5727 5725 5723 5721 5719 5716 5714 5711 5708 5705 5702
5749 5749 5749 5749 5749 5749 5749 5749 5748 5748 5748 5748 5748 5747 5747 5746 5744 5743 5742 5741 5740 5739 5737 5736 5734 5733 5731 5729 5727 5725 5724 5722 5721 5719 5717 5715 5712 5710 5707 5704 5701 5699
5745 5745 5745 5745 5745 5745 5745 5745 5744 5744 5744 5744 5743 5743 5742 5741 5739 5738 5737 5736 5735 5734 5733 5732 5730 5728 5726 5724 5723 5721 5720 5719 5717 5715 5713 5711 5709 5706 5703 5700 5698 5696
5741 5742 5741 5741 5741 5741 5741 5740 5740 5740 5740 5739 5739 5738 5737 5736 5735 5734 5733 5732 5731 5730 5729 5727 5726 5724 5722 5721 5719 5718 5717 5715 5713 5711 5709 5707 5705 5702 5699 5697 5695 5693
5738 5738 5738 5737 5737 5737 5736 5736 5736 5736 5736 5735 5734 5733 5732 5732 5731 5730 5729 5728 5727 5726 5724 5723 5722 5720 5719 5717 5716 5715 5713 5711 5709 5707 5705 5703 5701 5698 5696 5694 5692 5690
5734 5734 5734 5733 5733 5733 5732 5732 5732 5732 5731 5731 5730 5729 5728 5727 5726 5725 5725 5724 5723 5721 5720 5719 5717 5716 5715 5714 5712 5711 5709 5707 5706 5704 5702 5700 5697 5695 5692 5691 5689 5688